This is the latest recevied weather packets stored in our database for station/object KG4LKY-5. If no packets are shown the sender has not sent any weather packets the latest 10 day(s).
| Time | Temp. | Humidity | Pressure | Rain* | Wind** | Luminosity | Snow |
|---|---|---|---|---|---|---|---|
| 1777203981 | 12.78° C | 100% | 1015.3 hPa | 0.25 mm | - | - | - |
| 1777203681 | 12.22° C | 100% | 1015.3 hPa | 0.25 mm | - | - | - |
| 1777203380 | 11.67° C | 100% | 1015.3 hPa | 0.25 mm | - | - | - |
| 1777202780 | 10° C | 100% | 1015.2 hPa | 0.25 mm | - | - | - |
| 1777202479 | 10.56° C | 100% | 1015.2 hPa | 0.25 mm | - | - | - |
| 1777202179 | 10° C | 100% | 1015 hPa | 0.25 mm | - | - | - |
| 1777201879 | 10° C | 100% | 1015 hPa | 0.25 mm | - | - | - |
| 1777201579 | 10° C | 100% | 1015 hPa | 0.25 mm | - | - | - |
| 1777201278 | 10° C | 100% | 1015 hPa | 0.25 mm | - | - | - |
| 1777200978 | 9.44° C | 100% | 1014.9 hPa | 0.25 mm | - | - | - |
| 1777200678 | 9.44° C | 100% | 1014.8 hPa | 0.25 mm | - | - | - |
| 1777200377 | 9.44° C | 100% | 1014.7 hPa | 0.25 mm | - | - | - |
| 1777200077 | 9.44° C | 100% | 1014.6 hPa | 0.25 mm | - | - | - |
| 1777199777 | 8.89° C | 100% | 1014.7 hPa | 0.25 mm | - | - | - |
| 1777199477 | 9.44° C | 100% | 1014.7 hPa | 0.25 mm | - | - | - |
| 1777199176 | 8.89° C | 100% | 1014.8 hPa | 0.25 mm | - | - | - |
| 1777198876 | 8.33° C | 100% | 1014.8 hPa | 0.25 mm | - | - | - |
| 1777198576 | 8.33° C | 100% | 1014.8 hPa | 0 mm | - | - | - |
| 1777197975 | 8.33° C | 100% | 1014.7 hPa | 0 mm | - | - | - |
| 1777197375 | 8.89° C | 100% | 1014.7 hPa | 0 mm | - | - | - |
| 1777196774 | 8.33° C | 100% | 1014.6 hPa | 0 mm | - | - | - |
| 1777196474 | 7.78° C | 100% | 1014.5 hPa | 0 mm | - | - | - |
| 1777196173 | 8.89° C | 100% | 1014.5 hPa | 0 mm | - | - | - |
| 1777195572 | 8.89° C | 100% | 1014.4 hPa | 0 mm | - | - | - |
| 1777195272 | 8.33° C | 100% | 1014.3 hPa | 0 mm | - | - | - |
* Rain since midnight (hover to see other rain measurements)
** Current wind speed in m/s (hover to see current wind gust speed)